NEE-02 KRYSAOR

Last updated on Wed Oct 29 2025 00:03:53 GMT+0000 (Coordinated Universal Time)

1 39441U 13066AB 25301.37345298 .00003734 00000+0 42386-3 0 9991 2 39441 97.8660 237.7646 0069466 108.8744 252.0020 14.85166719641771
UTC large
Height (km)
Speed (km/s)
/
Latitude / Longitude
Inclination (degrees)
Orbital Period (minutes)
Azimuth
Elevation
Range (km)
Doppler Factor

Next 0 passes for location: London (51.5072 / 0.1276)

Sorry there are no passes over London.